Regional Weather Roundup
Issued by NWS

Home | Current Version | Previous Version | Graphics & Text | Print | Product List | Glossary On
Versions: 1 2 3 4 5 6 7 8 9 10 11 12 13 14 15 16 17 18 19 20 21 22 23 24 25 26 27 28 29 30 31 32 33 34 35 36 37 38 39 40 41 42 43 44 45 46 47 48 49 50
000
ASUS43 KOAX 262002
RWRNE

WEATHER ROUNDUP FOR NEBRASKA
NATIONAL WEATHER SERVICE OMAHA NE
300 PM CDT FRI MAY 26 2017

NOTES: SATELLITE DATA IS BEING USED TO AUGMENT CLOUD COVER ABOVE
       12000 FEET.
       "FAIR" INDICATES FEW OR NO CLOUDS BELOW 12,000 FEET WITH NO
       SIGNIFICANT WEATHER AND/OR OBSTRUCTIONS TO VISIBILITY.

  * THESE STATIONS DO NOT REPORT WEATHER SUCH AS RAIN...SNOW OR FOG.

NEZ001>004-019>022-054>056-262100-
NEBRASKA PANHANDLE

CITY           SKY/WX    TMP DP  RH WIND       PRES   REMARKS
SCOTTSBLUFF    SUNNY     64  38  38 VRB5      29.90F
ALLIANCE       MOSUNNY   63  41  44 S10       29.89F
CHADRON        MOSUNNY   62  40  44 W6        29.91S
GORDON         FAIR      65  35  33 CALM      29.91F
KIMBALL        SUNNY     64  42  44 E7        29.91F
SIDNEY         SUNNY     65  45  48 SE9G18    29.92F
$$

NEZ057>060-069>072-079>082-262100-
SOUTHWEST NEBRASKA

CITY           SKY/WX    TMP DP  RH WIND       PRES   REMARKS
NORTH PLATTE   SUNNY     73  44  35 MISG      29.89F
IMPERIAL       SUNNY     69  44  40 VRB5      29.90F
LEXINGTON      SUNNY     72  48  42 NE6       29.89F
MCCOOK         SUNNY     74  47  38 VRB3      29.88F
OGALLALA       SUNNY     69  42  36 CALM      29.91S
$$

NEZ005>010-023>029-035>040-094-262100-
NORTH CENTRAL NEBRASKA

CITY           SKY/WX    TMP DP  RH WIND       PRES   REMARKS
VALENTINE      SUNNY     71  37  28 VRB7      29.89F
AINSWORTH      SUNNY     67  42  40 N7        29.90F
BROKEN BOW     SUNNY     72  43  35 NE8       29.89F
O`NEILL        SUNNY     69  38  32 N5G12     29.89F
ORD            SUNNY     73  44  35 VRB6      29.86F
THEDFORD       SUNNY     70  42  37 N6        29.91S
$$

NEZ041-046>049-061>064-073>077-083>087-262100-
SOUTH CENTRAL NEBRASKA

CITY           SKY/WX    TMP DP  RH WIND       PRES   REMARKS
GRAND ISLAND   SUNNY     76  49  38 N13G25    29.86F
AURORA         SUNNY     77  44  30 N7        29.85F
HASTINGS       SUNNY     75  46  35 NE6       29.87F
HEBRON         SUNNY     80  46  29 N6G17     29.83S
HOLDREGE       SUNNY     72  44  36 NE3       29.88S
KEARNEY *      SUNNY     73  46  38 N7        29.88F
YORK           SUNNY     75  46  35 N14G20    29.84F
$$

NEZ011>018-030>034-042>045-262100-
NORTHEAST NEBRASKA

CITY           SKY/WX    TMP DP  RH WIND       PRES   REMARKS
NORFOLK        CLOUDY    74  47  38 NW8       29.83F
ALBION         SUNNY     74  48  40 N6        29.86F
BLAIR          SUNNY     75  53  46 N12       29.82S
FREMONT        MOSUNNY   78  47  33 NW8       29.82F
TEKAMAH        SUNNY     79  50  36 N10       29.80F
WAYNE          CLOUDY    76  48  37 NW13      29.83F
$$

NEZ050>053-065>068-078-088>093-262100-
SOUTHEAST NEBRASKA

CITY           SKY/WX    TMP DP  RH WIND       PRES   REMARKS
LINCOLN        SUNNY     80  52  37 N13       29.82F
OMAHA EPPLEY   MOSUNNY   79  53  40 NW16G24   29.79S
BEATRICE       SUNNY     80  53  39 N13       29.81F
FALLS CITY     PTSUNNY   84  62  47 MISG      29.76S
NEBRASKA CITY  SUNNY     81  51  35 NE12G20   29.79S
PLATTSMOUTH    SUNNY     79  55  42 N8        29.80R
$$

NEZ044-045-051>053-067-262100-
OMAHA AREA

CITY           SKY/WX    TMP DP  RH WIND       PRES   REMARKS
OMAHA EPPLEY   MOSUNNY   79  53  40 NW16G24   29.79S
BLAIR          SUNNY     75  53  46 N12       29.82S
FREMONT        MOSUNNY   78  47  33 NW8       29.82F
MILLARD        SUNNY     79  55  43 N9G16     29.80F
OFFUTT AFB     SUNNY     78  56  45 NW10G18   29.79R
PLATTSMOUTH    SUNNY     79  55  42 N8        29.80R
WAHOO          FAIR      76  45  33 N12G18    29.82F
$$




USA.gov is the U.S. government's official web portal to all federal, state and local government web resources and services.